sat.trackr.live / text

‹ back to catalog

2024-205L

NORAD 61904 · 2024-205L

PAYLOAD ACTIVE UNKNOWN

§ Identity

Operator
Country
PRC
Launch date
2024-11-11
Launch site
JSC
Launch vehicle
Mass (kg)
RCS (m²)

External: N2YO · Heavens-Above · Gunter

§ Orbital elements

Epoch: 2026-09-22T22:20:26.005056Z

Period
95.42 min
Inclination
97.4051°
Eccentricity
0.0066426
Mean motion
15.09075955 rev/d
Perigee alt
493.1 km
Apogee alt
585.0 km
Semi-major
6,917.2 km
B*
2.6200e-4
RAAN
332.9742°
Arg perigee
31.3496°
Mean anomaly
329.1666°
Rev number
10,293

§ Raw data

2024-205L1 61904U 24205L   26265.93085654  .00004305  00000+0  26200-3 0  99982 61904  97.4051 332.9742 0066426  31.3496 329.1666 15.09075955102932

JSON: /api/v1/satellites/61904 · /tle

For live sub-satellite position, see the globe view (requires WebGL).

§ Visibility from observer

Set your observer location to see the next 7 days of passes ≥ 10°. The values pass through the URL so the page stays shareable.

No JS? Fill the form by hand. The geolocation button needs JavaScript.